Location: Graswijk
(52.9667°N, 6.5500°E)
Time: 08:09:24
(UTC+00:00)

CZ-4C R/B - Pass Details

Date: 15 May 2026
Orbit: 409 x 496 km, 98.0° (Epoch: 6 June)

Event Time Altitude Azimuth Distance (km) Brightness Sun altitude
Rises 23:35:41 0° 24° (NNE) 2,454 7.9 -18.0°
Reaches altitude 10° 23:37:56 10° 38° (NE) 1,594 6.5 -18.0°
Maximum altitude 23:40:51 26° 96° (E) 955 4.5 -17.9°
Enters shadow 23:41:32 24° 116° (ESE) 1,005 4.4 -17.9°
